User: anonymous   Login
Location: Los Gatos B&B
(42.6926°N, 77.0646°W)
Time: 00:16:51
(UTC-04:00)
Language:

Cosmos 2263 Rocket - Orbit

View from above orbital plane
View from above orbital plane
View from above satellite
View from above satellite

Ground track
Ground track

The orbit data is extracted from the following two-line orbital elements,

1 22803U 93059B   15114.44498327  .00000132  00000-0  89778-4 0  9993
2 22803 070.9881 102.9963 0015988 147.3751 212.8363 14.16708193117137
Epoch (UTC): 24 April 2015 10:40:46
Eccentricity: 0.0015988
inclination: 70.9881°
perigee height: 825 km
apogee height: 848 km
right ascension of ascending node: 102.9963°
argument of perigee: 147.3751°
revolutions per day: 14.16708193
mean anomaly at epoch: 212.8363°
orbit number at epoch: 11713

The dashed part of the orbit path shows where the satellite is in the earth's shadow,  

DLR